CZ-4C R/B, 43264

Orbit data source: Space-Track

CZ-4C R/B, 43264 is space debris in SSO originally from a launch on Sat, 31 Mar 2018 UTC launched from the Taiyaun Space Center, China (TSC). Debris objects in space refer to the collection of defunct objects orbiting the Earth. Examples of debris include non-operational satellites, rocket bodies, and fragments generated from explosions, collisions, or faulty payload assembly.

Loading next visibility...
Identifier
43264, 2018-031F
Orbit
SSO
Country
Flag of CNCN / PRC
Related business
Manufacturer
SAST
Mission
Spacecraft
Bus & Motor
CZ-4 STAGE 3, Unknown motor
Mass
~1,000 kg wet, ~1,000 kg dry
Launch date (UTC)
2018-03-31 (7 years ago)
Launch vehicle
Unknown
Launch site
Taiyaun Space Center, China (TSC)
Object type
Payload
Rocket body
Debris
Shape & HBR
Cyl, 1.4 m
Radar Cross Section
7.676 m², Large (>1 m²)

Expand to show TLE details & history
Last TLE update: 9 hours ago

TLE from 9 hours ago
0 CZ-4C R/B
1 43264U 18031F   25261.12298978  .00006704  00000-0  29506-3 0  9996
2 43264  98.1394 155.3154 0084041 253.6712 105.5267 15.19060814409882
Epoch: 2025-09-18T02:57Z
TLE epoch observation values (Epoch: 2025-09-18T02:57:06.316Z)
Latitude
0.00001°
Longitude
113.74997°
Altitude
527.691 km
Speed
7.59 km/s
True Right ascension
10h 21m 15s
True Declination
0° 00' 00"
Sunlit
Object was in daylight at epoch
Visualization orbit readout
Latitude
Unknown
Longitude
Unknown
Altitude
Unknown
Speed
Unknown
Apparent Right ascension
Unknown
Apparent Declination
Unknown
Sunlit
N/A
Visualization observer readout
Local Sidereal Time
04:34:59
Azimuth
Unknown
Elevation
Unknown
Doppler factor
Unknown
Orbital elements
Apogee altitude
563.53 km
Perigee altitude
447.825 km
Semi-major axis
6,883.814 km
Eccentricity
0.0084
Inclination
98.1394°
RAAN
155.3154°
Arg. of periapsis
253.6712°
True anomaly
106.45195°
Mean anomaly
105.5267°
Eccentric anomaly
105.98959°
Mean motion
3.80014 °/min
Orbital period
94.73 mins
BSTAR
0.00029506
Loading maneuver chart data...
Computing Atmospheric mass density...
Loading historical data...
Loading historical data...
Loading historical data...
Loading historical data...
Loading historical data...
Loading historical data...
Loading historical data...

Documentation

Showing up to 5 results
|